OneWeb SL0689

operational
NORAD ID: 61597 Int'l Des: 2024-188 Owner: ONEWEBE Country: UK Constellation: oneweb
LEOCIRCULARPOLARONEWEB_TYPE

Über OneWeb SL0689

Beschreibung wird geladen...

Live-Position

3D-Globus wird geladen...

Nächste Überflüge

Höhenverlauf

Altitude vs Time

uPlot chart will show altitude changes over time

Zweizeiliger Elementsatz

1 61597U 24188D 26034.06104816 -.00000503 00000-0 -14553-2 0 9992
2 61597 87.8823 47.7222 0002133 96.1394 263.9977 13.11416275 66872
Epoch: 3. Feb. 2026 • Age: 9 hours

Aktueller Status

Höhe 1244.3 km
Geschwindigkeit 7.23 km/s
Subsatellitenpunkt -66.25°S, 51.77°W
Startdatum 20. Okt. 2024
Alter 1.2 years
Typ internet

Technische Details

Klassifizierung Payload
Masse 148.00 kg
Trockenmasse 140.00 kg
Gesamtmasse 148.00 kg
Länge 1.30 m
Durchmesser 1.00 m
Spannweite 5.00 m
Form Trapezoid+2 pan
Hersteller ONEWUS
Bus-Typ ARROW
Phasenstatus In Orbit
Besitzer/Staat ONEWEBE/UK

Große Konstellationen

Loading constellations...